Weather History for Carlsbad, CA

Change the Weather History Date:

Friday, August 9, 2013

  Actual Average Record
Temperature  
Mean Temperature 66 °F -  
Max Temperature 71 °F 73 °F 93 °F (1997)
Min Temperature 63 °F 62 °F 59 °F (1999)
Cooling Degree Days 2    
Growing Degree Days 16 (Base 50)    
Moisture  
Dew Point 56 °F    
Average Humidity 71    
Maximum Humidity 78    
Minimum Humidity 63    
Precipitation  
Precipitation 0.00 in - - ()
Sea Level Pressure  
Sea Level Pressure 29.94 in    
Wind  
Wind Speed 3 mph (WSW)    
Max Wind Speed 10 mph    
Max Gust Speed -    
Visibility 10 miles    
Events      
Averages and records for this station are not official NWS values.
T = Trace of Precipitation, MM = Missing Value Source: NWS Daily Summary

Daily Weather History Graph

Daily Weather History Graph

Search for Another Location

Airport:

Trip Planner

Search our weather history database for the weather conditions in past years. The results will help you decide how hot, cold, wet, or windy it might be!

Date:

Astronomy

Aug. 09, 2013 Rise Set
Actual Time 6:08 AM PDT 7:40 PM PDT
Civil Twilight 5:41 AM PDT 8:06 PM PDT
Nautical Twilight 5:09 AM PDT 8:38 PM PDT
Astronomical Twilight 4:36 AM PDT 9:11 PM PDT
Moon 8:46 AM PDT (8/9) 9:06 PM PDT (8/9)
Length of Visible Light 14h 25m
Length of Day
13h 32m
Waxing Crescent, 8% of the Moon is Illuminated
Aug 9
Waxing Crescent
Aug 14
First Quarter
Aug 20
Full
Aug 28
Last Quarter
Sep 5
New

Hourly Weather History & Observations

Time (PDT) Temp. Dew Point Humidity Pressure Visibility Wind Dir Wind Speed Gust Speed Precip Events Conditions
12:53 AM 64.9 °F 57.9 °F 78% 29.93 in 10.0 mi Calm Calm - N/A   Overcast
1:53 AM 66.0 °F 57.9 °F 75% 29.92 in 10.0 mi Calm Calm - N/A   Overcast
2:53 AM 66.0 °F 57.0 °F 73% 29.91 in 10.0 mi Calm Calm - N/A   Overcast
3:53 AM 64.9 °F 57.0 °F 75% 29.91 in 10.0 mi Calm Calm - N/A   Overcast
4:53 AM 64.9 °F 57.0 °F 75% 29.90 in 10.0 mi Calm Calm - N/A   Overcast
5:53 AM 64.9 °F 57.0 °F 75% 29.91 in 10.0 mi NW 3.5 mph - N/A   Overcast
6:53 AM 64.0 °F 57.0 °F 78% 29.93 in 10.0 mi Calm Calm - N/A   Overcast
7:53 AM 64.0 °F 57.0 °F 78% 29.94 in 10.0 mi Calm Calm - N/A   Overcast
8:53 AM 64.9 °F 55.9 °F 73% 29.95 in 10.0 mi NW 3.5 mph - N/A   Overcast
9:31 AM 66.2 °F 55.4 °F 68% 29.96 in 10.0 mi Calm Calm - N/A   Overcast
9:53 AM 66.9 °F 55.9 °F 68% 29.96 in 10.0 mi West 4.6 mph - N/A   Overcast
10:41 AM 68.0 °F 55.4 °F 64% 29.96 in 10.0 mi WSW 6.9 mph - N/A   Partly Cloudy
10:53 AM 69.1 °F 55.9 °F 63% 29.95 in 10.0 mi Variable 5.8 mph - N/A   Clear
11:53 AM 69.1 °F 57.9 °F 68% 29.95 in 10.0 mi WSW 10.4 mph - N/A   Clear
12:53 PM 69.1 °F 57.0 °F 65% 29.95 in 10.0 mi SW 8.1 mph - N/A   Partly Cloudy
1:53 PM 70.0 °F 57.0 °F 63% 29.94 in 10.0 mi West 8.1 mph - N/A   Clear
2:53 PM 69.1 °F 55.9 °F 63% 29.94 in 10.0 mi WSW 8.1 mph - N/A   Clear
3:53 PM 68.0 °F 55.9 °F 65% 29.93 in 10.0 mi WSW 10.4 mph - N/A   Clear
4:53 PM 66.9 °F 55.9 °F 68% 29.94 in 10.0 mi WSW 9.2 mph - N/A   Partly Cloudy
5:53 PM 66.0 °F 55.9 °F 70% 29.93 in 10.0 mi WSW 5.8 mph - N/A   Scattered Clouds
6:34 PM 66.2 °F 55.4 °F 68% 29.94 in 10.0 mi WSW 6.9 mph - N/A   Mostly Cloudy
6:44 PM 64.4 °F 55.4 °F 73% 29.94 in 10.0 mi SW 5.8 mph - N/A   Scattered Clouds
6:53 PM 66.0 °F 55.9 °F 70% 29.94 in 10.0 mi WSW 6.9 mph - N/A   Mostly Cloudy
7:04 PM 64.4 °F 55.4 °F 73% 29.94 in 10.0 mi Calm Calm - N/A   Scattered Clouds
7:53 PM 64.0 °F 55.9 °F 75% 29.94 in 10.0 mi West 3.5 mph - N/A   Partly Cloudy
8:53 PM 64.0 °F 55.9 °F 75% 29.95 in 10.0 mi Calm Calm - N/A   Partly Cloudy
9:53 PM 63.0 °F 55.9 °F 78% 29.97 in 10.0 mi Calm Calm - N/A   Partly Cloudy
10:53 PM 63.0 °F 55.0 °F 75% 29.96 in 10.0 mi Calm Calm - N/A   Clear
11:53 PM 63.0 °F 55.9 °F 78% 29.97 in 10.0 mi Calm Calm - N/A   Clear